FW9034 Weather Reports


time (UTC)temp
C
wind
direction
speed
KPH
gust
KPH
rain 1hr
cm
rain 24hr
cm
rain mn
cm
humidity
%
barometer
mb
20260504202903 16 18 14.5 16.1 0.00 0.00 0.00 36 903.9
20260504202400 15 8 12.9 16.1 0.00 0.00 0.00 35 903.9
20260504201857 15 11 6.4 6.4 0.00 0.00 0.00 34 903.8
20260504201354 16 353 6.4 8.0 0.00 0.00 0.00 35 904.0
20260504200852 16 28 4.8 8.0 0.00 0.00 0.00 35 904.0
20260504200348 16 41 1.6 1.6 0.00 0.00 0.00 35 903.8
20260504195845 16 8 4.8 8.0 0.00 0.00 0.00 35 903.9
20260504195340 15 29 8.0 14.5 0.00 0.00 0.00 35 904.1
20260504194837 15 30 16.1 20.9 0.00 0.00 0.00 35 904.1
20260504194333 16 15 9.7 14.5 0.00 0.00 0.00 35 903.8
20260504193829 15 12 17.7 20.9 0.00 0.00 0.00 35 903.9
20260504193327 16 5 17.7 20.9 0.00 0.00 0.00 36 903.8
20260504192826 16 31 22.5 32.2 0.00 0.00 0.00 35 904.1
20260504192323 16 16 17.7 25.7 0.00 0.00 0.00 33 903.7
20260504191821 16 358 19.3 22.5 0.00 0.00 0.00 35 903.8
20260504191319 16 9 19.3 25.7 0.00 0.00 0.00 34 903.7
20260504190814 16 26 9.7 12.9 0.00 0.00 0.00 34 903.8
20260504190310 16 19 37.0 48.3 0.00 0.00 0.00 33 903.7
20260504185807 16 11 16.1 17.7 0.00 0.00 0.00 33 903.5
20260504185304 16 21 16.1 22.5 0.00 0.00 0.00 33 903.6
20260504184800 17 11 24.1 25.7 0.00 0.00 0.00 34 903.4
20260504184256 16 19 19.3 30.6 0.00 0.00 0.00 32 903.5
20260504183752 16 14 22.5 24.1 0.00 0.00 0.00 34 903.6
20260504183249 16 0 25.7 30.6 0.00 0.00 0.00 32 903.6
20260504182747 17 13 29.0 37.0 0.00 0.00 0.00 32 903.2
20260504182244 17 29 24.1 29.0 0.00 0.00 0.00 32 903.8
20260504181741 16 17 29.0 33.8 0.00 0.00 0.00 32 903.5
20260504181238 16 25 35.4 45.1 0.00 0.00 0.00 33 903.6
20260504180738 16 14 30.6 37.0 0.00 0.00 0.00 34 903.5
20260504180236 17 11 24.1 33.8 0.00 0.00 0.00 32 903.4
20260504175733 17 16 29.0 41.8 0.00 0.00 0.00 31 903.4
20260504175230 17 5 24.1 32.2 0.00 0.00 0.00 30 903.5
20260504174728 17 17 24.1 40.2 0.00 0.00 0.00 29 903.5
20260504174225 17 3 24.1 33.8 0.00 0.00 0.00 28 903.5
20260504173721 17 28 25.7 30.6 0.00 0.00 0.00 28 903.7
20260504173219 16 28 24.1 32.2 0.00 0.00 0.00 29 903.2
20260504172715 17 12 16.1 20.9 0.00 0.00 0.00 27 903.7
20260504172212 18 7 24.1 38.6 0.00 0.00 0.00 22 903.2
20260504171708 18 36 1.6 1.6 0.00 0.00 0.00 21 902.9
20260504171206 18 15 12.9 16.1 0.00 0.00 0.00 21 903.1
20260504170702 19 347 8.0 9.7 0.00 0.00 0.00 20 903.2
20260504170200 20 341 8.0 8.0 0.00 0.00 0.00 19 903.2
20260504160118 17 13 8.0 9.7 0.00 0.00 0.00 21 903.1
20260504151045 17 327 4.8 6.4 0.00 0.00 0.00 22 903.2
20260504150542 17 10 4.8 6.4 0.00 0.00 0.00 22 903.5
20260504141008 13 332 4.8 6.4 0.00 0.00 0.00 29 903.4
20260504140505 13 332 6.4 8.0 0.00 0.00 0.00 29 903.1
20260504130429 8 254 0.0 1.6 0.00 0.00 0.00 40 903.2
20260504110317 2 216 0.0 0.0 0.00 0.00 0.00 67 903.5
20260504100234 3 206 0.0 0.0 0.00 0.00 0.00 66 903.7
20260504081628 5 224 1.6 1.6 0.00 0.00 0.00 59 904.6
20260504081123 5 262 1.6 1.6 0.00 0.00 0.00 59 904.8
20260504080620 5 255 0.0 0.0 0.00 0.00 0.00 59 904.8
20260504080117 5 261 0.0 1.6 0.00 0.00 0.00 59 904.8
20260504050433 8 286 0.0 1.6 0.00 0.00 0.00 49 906.0
20260504045930 8 296 1.6 1.6 0.00 0.00 0.00 48 906.0
20260504045426 8 325 0.0 1.6 0.00 0.00 0.00 47 906.1
20260504044922 8 332 0.0 1.6 0.00 0.00 0.00 47 906.1
20260504044420 8 336 0.0 0.0 0.00 0.00 0.00 47 906.2
20260504043917 8 338 0.0 0.0 0.00 0.00 0.00 46 906.1
20260504043414 8 340 1.6 1.6 0.00 0.00 0.00 46 906.4
20260504042911 9 346 1.6 1.6 0.00 0.00 0.00 45 906.1
20260504042408 9 349 1.6 1.6 0.00 0.00 0.00 46 906.3
20260504041904 9 350 1.6 1.6 0.00 0.00 0.00 46 906.4
20260504041400 9 351 0.0 0.0 0.00 0.00 0.00 45 906.1
20260504040856 10 351 0.0 0.0 0.00 0.00 0.00 44 906.2
20260504040354 10 349 0.0 0.0 0.00 0.00 0.00 44 906.4
20260504035850 10 1 4.8 4.8 0.00 0.00 0.00 43 906.1
20260504035348 10 70 1.6 1.6 0.00 0.00 0.00 44 906.2
20260504034844 10 71 0.0 1.6 0.00 0.00 0.00 44 906.2
20260504034342 10 70 0.0 0.0 0.00 0.00 0.00 43 906.3
20260504033838 10 77 3.2 4.8 0.00 0.00 0.00 43 906.1
20260504033337 10 83 0.0 0.0 0.00 0.00 0.00 43 906.3
20260504032833 10 83 0.0 0.0 0.00 0.00 0.00 43 906.1
20260504032330 10 89 0.0 0.0 0.00 0.00 0.00 42 906.1
20260504031827 10 77 0.0 0.0 0.00 0.00 0.00 42 905.8
20260504031324 11 70 0.0 0.0 0.00 0.00 0.00 41 906.0
20260504030820 11 62 1.6 1.6 0.00 0.00 0.00 41 906.0
20260504030318 11 65 1.6 1.6 0.00 0.00 0.00 40 906.0
20260504025814 11 52 1.6 1.6 0.00 0.00 0.00 39 906.2
20260504025311 12 49 1.6 1.6 0.00 0.00 0.00 39 906.0
20260504024808 12 42 1.6 4.8 0.00 0.00 0.00 38 906.0
20260504024304 12 47 6.4 8.0 0.00 0.00 0.00 37 905.8
20260504023801 12 44 4.8 6.4 0.00 0.00 0.00 36 905.9
20260504023257 13 74 4.8 6.4 0.00 0.00 0.00 35 905.9
20260504022753 13 52 4.8 6.4 0.00 0.00 0.00 34 906.0
20260504022250 13 26 4.8 8.0 0.00 0.00 0.00 34 906.0
20260504021747 13 16 8.0 8.0 0.00 0.00 0.00 33 906.0
20260504021244 13 54 4.8 8.0 0.00 0.00 0.00 33 905.9
20260504020741 14 12 8.0 12.9 0.00 0.00 0.00 33 905.6
20260504020237 14 27 4.8 4.8 0.00 0.00 0.00 33 905.8
20260504015733 14 33 6.4 8.0 0.00 0.00 0.00 32 905.6
20260504015230 15 50 3.2 4.8 0.00 0.00 0.00 32 905.5
20260504014726 15 56 3.2 4.8 0.00 0.00 0.00 31 905.6
20260504014223 15 56 4.8 8.0 0.00 0.00 0.00 30 905.6
20260504013720 15 10 8.0 14.5 0.00 0.00 0.00 30 905.6
20260504013218 16 11 6.4 8.0 0.00 0.00 0.00 29 905.6
20260504012714 16 19 22.5 29.0 0.00 0.00 0.00 28 905.5
20260504012212 17 30 20.9 29.0 0.00 0.00 0.00 25 905.3
20260504011709 17 14 16.1 20.9 0.00 0.00 0.00 21 905.3
20260504011206 17 28 8.0 12.9 0.00 0.00 0.00 21 905.2
20260504010702 17 31 4.8 6.4 0.00 0.00 0.00 21 905.1
20260504010157 17 24 8.0 8.0 0.00 0.00 0.00 21 905.2
20260504005654 17 51 4.8 6.4 0.00 0.00 0.00 22 905.3
20260504005151 17 47 3.2 4.8 0.00 0.00 0.00 22 905.2
20260504004649 17 40 6.4 8.0 0.00 0.00 0.00 22 905.4
20260504004146 18 7 14.5 16.1 0.00 0.00 0.00 21 905.3
20260504003642 18 21 11.3 14.5 0.00 0.00 0.00 21 905.1
20260504003139 18 34 8.0 9.7 0.00 0.00 0.00 21 905.0
20260504002636 19 356 24.1 25.7 0.00 0.00 0.00 18 905.0
20260504002134 20 336 9.7 12.9 0.00 0.00 0.00 14 904.8
20260504001631 20 325 8.0 9.7 0.00 0.00 0.00 14 904.7
20260504001127 20 328 11.3 14.5 0.00 0.00 0.00 14 905.2
20260504000625 20 330 11.3 20.9 0.00 0.00 0.00 13 904.9
20260504000122 20 340 9.7 14.5 0.00 0.00 0.00 13 904.9
20260503235620 20 320 11.3 16.1 0.00 0.00 0.00 14 905.1
20260503235116 20 348 12.9 14.5 0.00 0.00 0.00 13 905.0
20260503234614 20 353 14.5 20.9 0.00 0.00 0.00 12 905.1
20260503234112 20 338 14.5 20.9 0.00 0.00 0.00 12 905.0
20260503233609 20 309 8.0 14.5 0.00 0.00 0.00 13 905.1
20260503233104 20 271 4.8 6.4 0.00 0.00 0.00 13 905.2
20260503232602 20 338 14.5 20.9 0.00 0.00 0.00 13 905.2
20260503232059 20 262 3.2 4.8 0.00 0.00 0.00 13 905.3
20260503231557 20 319 8.0 9.7 0.00 0.00 0.00 13 905.2
20260503231053 20 296 4.8 6.4 0.00 0.00 0.00 12 905.1
20260503230550 20 21 12.9 17.7 0.00 0.00 0.00 13 905.2
20260503230047 20 319 8.0 8.0 0.00 0.00 0.00 12 905.3
20260503225544 20 279 4.8 8.0 0.00 0.00 0.00 12 905.4
20260503225039 20 351 8.0 9.7 0.00 0.00 0.00 13 905.2
20260503224537 20 292 11.3 14.5 0.00 0.00 0.00 13 905.2
20260503224034 20 8 8.0 9.7 0.00 0.00 0.00 13 905.3
20260503223532 20 352 8.0 9.7 0.00 0.00 0.00 13 905.2
20260503223027 20 324 11.3 16.1 0.00 0.00 0.00 13 905.3
20260503222526 20 276 19.3 24.1 0.00 0.00 0.00 14 905.2
20260503222024 20 323 4.8 8.0 0.00 0.00 0.00 14 905.4
20260503221522 20 4 6.4 9.7 0.00 0.00 0.00 14 905.4
20260503221019 20 326 14.5 16.1 0.00 0.00 0.00 14 905.5
20260503220515 20 339 4.8 4.8 0.00 0.00 0.00 14 905.6
20260503220012 20 286 6.4 12.9 0.00 0.00 0.00 13 905.4
20260503215509 20 204 4.8 8.0 0.00 0.00 0.00 16 905.6
20260503215006 20 205 3.2 4.8 0.00 0.00 0.00 16 905.5
20260503214504 20 219 6.4 8.0 0.00 0.00 0.00 17 905.6
20260503214000 19 197 11.3 14.5 0.00 0.00 0.00 16 906.2
20260503213459 20 207 8.0 12.9 0.00 0.00 0.00 17 905.9
20260503212955 19 230 8.0 12.9 0.00 0.00 0.00 18 906.3
20260503212453 19 215 6.4 8.0 0.00 0.00 0.00 19 906.2
20260503211950 19 209 11.3 12.9 0.00 0.00 0.00 19 906.3
20260503211447 19 96 1.6 1.6 0.00 0.00 0.00 18 906.2
20260503210942 19 196 6.4 9.7 0.00 0.00 0.00 19 906.3
20260503210439 18 205 8.0 8.0 0.00 0.00 0.00 18 906.3
20260503205940 18 298 3.2 4.8 0.00 0.00 0.00 19 906.4
20260503205437 18 293 3.2 6.4 0.00 0.00 0.00 20 907.1
20260503204933 18 351 8.0 9.7 0.00 0.00 0.00 20 907.0
20260503204430 18 356 8.0 12.9 0.00 0.00 0.00 20 906.9
20260503203927 17 13 12.9 16.1 0.00 0.00 0.00 22 907.3
20260503203425 18 316 8.0 12.9 0.00 0.00 0.00 21 907.2